When you browse on this site, cookies collect data to enhance your experience and personalize the content and advertising you see.
Visit our Privacy Policy to learn more. By continuing to use the site, you agree to this use of cookies and data.
  • In Austria
  • List of Countries
  • For 7 days
  • Water Temperature
  • Weather Map
  • News
  • Weather Widgets
  • user-avatar
    Login

    Hourly Weather Trumbull

    Today, 5 June, Friday

    Time Temperature Precipitation Wind Pressure Humidity
    00:00 +21°C° 1.1 mm 3 mps 754 mmHg 85%
    01:00 +20°C° 1.1 mm 3 mps 754 mmHg 92%
    02:00 +20°C° 1 mm 3 mps 753 mmHg 93%
    03:00 +20°C° 1 mm 2 mps 753 mmHg 94%
    04:00 +20°C° 1 mm 2 mps 753 mmHg 95%
    05:00 +20°C° 0 mm 2 mps 753 mmHg 94%
    06:00 +21°C° 0 mm 3 mps 753 mmHg 92%
    07:00 +21°C° 0 mm 4 mps 754 mmHg 90%
    08:00 +21°C° 0.3 mm 3 mps 754 mmHg 91%
    09:00 +21°C° 0.3 mm 3 mps 754 mmHg 91%
    10:00 +21°C° 0.3 mm 2 mps 754 mmHg 91%
    11:00 +21°C° 0.5 mm 3 mps 753 mmHg 92%
    12:00 +22°C° 0.5 mm 3 mps 753 mmHg 92%
    13:00 +22°C° 0.5 mm 3 mps 753 mmHg 93%
    14:00 +21°C° 1.8 mm 2 mps 753 mmHg 93%
    15:00 +21°C° 1.8 mm 2 mps 753 mmHg 94%
    16:00 +20°C° 1.8 mm 2 mps 752 mmHg 94%
    17:00 +20°C° 0.9 mm 2 mps 752 mmHg 95%
    18:00 +20°C° 0.9 mm 2 mps 753 mmHg 95%
    19:00 +20°C° 0.9 mm 2 mps 753 mmHg 96%
    20:00 +20°C° 0.5 mm 2 mps 753 mmHg 96%
    21:00 +20°C° 0.5 mm 2 mps 752 mmHg 97%
    22:00 +20°C° 0.5 mm 2 mps 752 mmHg 98%
    23:00 +20°C° 0.1 mm 2 mps 752 mmHg 98%

    Tomorrow, 6 June, Saturday

    Time Temperature Precipitation Wind Pressure Humidity
    00:00 +20°C° 0.1 mm 2 mps 752 mmHg 98%
    01:00 +20°C° 0.1 mm 2 mps 752 mmHg 98%
    02:00 +20°C° 0 mm 2 mps 751 mmHg 98%
    03:00 +20°C° 0 mm 2 mps 751 mmHg 98%
    04:00 +20°C° 0 mm 2 mps 750 mmHg 98%
    05:00 +21°C° 0 mm 2 mps 750 mmHg 95%
    06:00 +21°C° 0 mm 2 mps 750 mmHg 93%
    07:00 +23°C° 0 mm 2 mps 750 mmHg 91%
    08:00 +25°C° 0 mm 2 mps 750 mmHg 80%
    09:00 +27°C° 0 mm 2 mps 750 mmHg 69%
    10:00 +29°C° 0 mm 3 mps 749 mmHg 58%
    11:00 +30°C° 0 mm 3 mps 749 mmHg 55%
    12:00 +30°C° 0 mm 4 mps 749 mmHg 51%
    13:00 +32°C° 0 mm 4 mps 748 mmHg 48%
    14:00 +30°C° 0.2 mm 4 mps 748 mmHg 50%
    15:00 +30°C° 0.2 mm 5 mps 748 mmHg 51%
    16:00 +29°C° 0.2 mm 5 mps 748 mmHg 53%
    17:00 +28°C° 0 mm 5 mps 748 mmHg 52%
    18:00 +26°C° 0 mm 5 mps 749 mmHg 51%
    19:00 +25°C° 0 mm 5 mps 749 mmHg 51%
    20:00 +22°C° 0 mm 5 mps 749 mmHg 52%
    21:00 +21°C° 0 mm 5 mps 749 mmHg 54%
    22:00 +19°C° 0 mm 4 mps 750 mmHg 56%
    23:00 +18°C° 0 mm 4 mps 750 mmHg 61%

    Day after tomorrow, 7 June, Sunday

    Time Temperature Precipitation Wind Pressure Humidity
    00:00 +17°C° 0 mm 3 mps 750 mmHg 67%
    01:00 +17°C° 0 mm 3 mps 750 mmHg 72%
    02:00 +15°C° 0 mm 4 mps 750 mmHg 74%
    03:00 +15°C° 0 mm 4 mps 750 mmHg 75%
    04:00 +14°C° 0 mm 5 mps 750 mmHg 77%
    05:00 +15°C° 0 mm 5 mps 750 mmHg 73%
    06:00 +16°C° 0 mm 5 mps 751 mmHg 69%
    07:00 +17°C° 0 mm 5 mps 751 mmHg 65%
    08:00 +19°C° 0 mm 5 mps 751 mmHg 58%
    09:00 +20°C° 0 mm 5 mps 752 mmHg 52%
    10:00 +22°C° 0 mm 5 mps 752 mmHg 45%
    11:00 +22°C° 0 mm 5 mps 752 mmHg 42%
    12:00 +23°C° 0 mm 5 mps 752 mmHg 40%
    13:00 +25°C° 0 mm 5 mps 752 mmHg 38%
    14:00 +25°C° 0 mm 5 mps 752 mmHg 39%
    15:00 +25°C° 0 mm 4 mps 752 mmHg 40%
    16:00 +23°C° 0 mm 4 mps 752 mmHg 40%
    17:00 +22°C° 0 mm 3 mps 753 mmHg 45%
    18:00 +21°C° 0 mm 3 mps 754 mmHg 50%
    19:00 +20°C° 0 mm 3 mps 754 mmHg 55%
    20:00 +18°C° 0 mm 3 mps 755 mmHg 56%
    21:00 +17°C° 0 mm 3 mps 755 mmHg 57%
    22:00 +16°C° 0 mm 2 mps 756 mmHg 58%
    23:00 +16°C° 0 mm 2 mps 756 mmHg 61%

    8 June, Monday

    Time Temperature Precipitation Wind Pressure Humidity
    00:00 +15°C° 0 mm 2 mps 756 mmHg 63%
    01:00 +14°C° 0 mm 2 mps 756 mmHg 66%
    02:00 +14°C° 0 mm 2 mps 757 mmHg 66%
    03:00 +13°C° 0 mm 2 mps 757 mmHg 67%
    04:00 +13°C° 0 mm 2 mps 757 mmHg 68%
    05:00 +14°C° 0 mm 2 mps 757 mmHg 64%
    06:00 +16°C° 0 mm 2 mps 758 mmHg 61%
    07:00 +17°C° 0 mm 3 mps 758 mmHg 57%
    08:00 +19°C° 0 mm 2 mps 758 mmHg 51%
    09:00 +21°C° 0 mm 2 mps 758 mmHg 46%
    10:00 +24°C° 0 mm 2 mps 758 mmHg 40%
    11:00 +24°C° 0 mm 2 mps 758 mmHg 37%
    12:00 +25°C° 0 mm 2 mps 758 mmHg 35%
    13:00 +26°C° 0 mm 3 mps 758 mmHg 33%
    14:00 +26°C° 0 mm 2 mps 758 mmHg 33%
    15:00 +26°C° 0 mm 2 mps 757 mmHg 34%
    16:00 +26°C° 0 mm 2 mps 757 mmHg 34%
    17:00 +24°C° 0 mm 2 mps 757 mmHg 41%
    18:00 +23°C° 0 mm 2 mps 758 mmHg 48%
    19:00 +20°C° 0 mm 2 mps 758 mmHg 54%
    20:00 +19°C° 0 mm 2 mps 758 mmHg 55%
    21:00 +19°C° 0 mm 2 mps 758 mmHg 55%
    22:00 +18°C° 0 mm 2 mps 759 mmHg 56%
    23:00 +17°C° 0 mm 2 mps 759 mmHg 57%

    9 June, Tuesday

    Time Temperature Precipitation Wind Pressure Humidity
    00:00 +18°C° 0 mm 1 mps 759 mmHg 58%
    01:00 +18°C° 0 mm 1 mps 759 mmHg 60%
    02:00 +18°C° 0 mm 1 mps 759 mmHg 62%
    03:00 +16°C° 0 mm 1 mps 759 mmHg 64%
    04:00 +16°C° 0 mm 1 mps 759 mmHg 66%
    05:00 +18°C° 0 mm 1 mps 759 mmHg 64%
    06:00 +19°C° 0 mm 1 mps 760 mmHg 62%
    07:00 +19°C° 0 mm 0 mps 760 mmHg 59%
    08:00 +23°C° 0 mm 1 mps 760 mmHg 54%
    09:00 +25°C° 0 mm 1 mps 760 mmHg 48%
    10:00 +27°C° 0 mm 1 mps 760 mmHg 43%
    11:00 +27°C° 0 mm 1 mps 759 mmHg 41%
    12:00 +28°C° 0 mm 2 mps 759 mmHg 40%
    13:00 +29°C° 0 mm 2 mps 759 mmHg 38%
    14:00 +29°C° 0 mm 3 mps 759 mmHg 39%
    15:00 +28°C° 0 mm 4 mps 759 mmHg 40%
    16:00 +28°C° 0 mm 4 mps 759 mmHg 40%
    17:00 +26°C° 0 mm 4 mps 759 mmHg 47%
    18:00 +23°C° 0 mm 4 mps 759 mmHg 53%
    19:00 +21°C° 0 mm 4 mps 759 mmHg 59%
    20:00 +21°C° 0 mm 4 mps 760 mmHg 59%
    21:00 +20°C° 0 mm 3 mps 760 mmHg 60%
    22:00 +19°C° 0 mm 3 mps 760 mmHg 60%
    23:00 +19°C° 0 mm 3 mps 760 mmHg 62%

    10 June, Wednesday

    Time Temperature Precipitation Wind Pressure Humidity
    00:00 +19°C° 0 mm 3 mps 760 mmHg 63%
    01:00 +19°C° 0 mm 3 mps 760 mmHg 64%
    02:00 +18°C° 0 mm 3 mps 760 mmHg 65%
    03:00 +18°C° 0 mm 3 mps 761 mmHg 66%
    04:00 +18°C° 0 mm 3 mps 761 mmHg 66%
    05:00 +19°C° 0 mm 3 mps 761 mmHg 64%
    06:00 +20°C° 0 mm 3 mps 761 mmHg 62%
    07:00 +21°C° 0 mm 3 mps 761 mmHg 59%
    08:00 +22°C° 0 mm 3 mps 761 mmHg 54%
    09:00 +24°C° 0 mm 3 mps 761 mmHg 50%
    10:00 +25°C° 0 mm 3 mps 761 mmHg 45%
    11:00 +26°C° 0 mm 4 mps 761 mmHg 43%
    12:00 +26°C° 0 mm 4 mps 761 mmHg 41%
    13:00 +27°C° 0 mm 5 mps 761 mmHg 39%
    14:00 +26°C° 0 mm 5 mps 760 mmHg 41%
    15:00 +26°C° 0 mm 5 mps 760 mmHg 43%
    16:00 +25°C° 0 mm 5 mps 760 mmHg 45%
    17:00 +22°C° 0 mm 4 mps 760 mmHg 51%
    18:00 +21°C° 0 mm 4 mps 761 mmHg 58%
    19:00 +19°C° 0 mm 4 mps 761 mmHg 65%
    20:00 +18°C° 0 mm 3 mps 761 mmHg 69%
    21:00 +18°C° 0 mm 3 mps 761 mmHg 74%
    22:00 +17°C° 0 mm 3 mps 761 mmHg 79%
    23:00 +16°C° 0 mm 3 mps 761 mmHg 82%
    Show more